TimeEDT,TemperatureF,Dew PointF,Humidity,Sea Level PressureIn,VisibilityMPH,Wind Direction,Wind SpeedMPH,Gust SpeedMPH,PrecipitationIn,Events,Conditions,WindDirDegrees,DateUTC
12:15 AM,69.8,69.8,100,30.12,10.0,NE,4.6,-,N/A,,Mostly Cloudy,50,2013-05-29 04:15:00
12:35 AM,69.8,69.8,100,30.11,7.0,Calm,Calm,-,N/A,,Scattered Clouds,0,2013-05-29 04:35:00
12:55 AM,69.8,69.8,100,30.11,7.0,NE,4.6,-,N/A,,Clear,50,2013-05-29 04:55:00
1:15 AM,69.8,69.8,100,30.10,10.0,Calm,Calm,-,N/A,,Clear,0,2013-05-29 05:15:00
1:35 AM,69.8,69.8,100,30.10,7.0,Calm,Calm,-,N/A,,Clear,0,2013-05-29 05:35:00
1:55 AM,69.8,69.8,100,30.10,7.0,NE,3.5,-,N/A,,Scattered Clouds,50,2013-05-29 05:55:00
2:15 AM,69.8,69.8,100,30.09,10.0,Calm,Calm,-,N/A,,Mostly Cloudy,0,2013-05-29 06:15:00
2:35 AM,69.8,69.8,100,30.09,10.0,Calm,Calm,-,N/A,,Scattered Clouds,0,2013-05-29 06:35:00
2:55 AM,69.8,69.8,100,30.08,10.0,Calm,Calm,-,N/A,,Clear,0,2013-05-29 06:55:00
3:15 AM,69.8,69.8,100,30.08,10.0,ENE,3.5,-,N/A,,Clear,70,2013-05-29 07:15:00
3:35 AM,69.8,69.8,100,30.07,10.0,East,8.1,-,N/A,,Mostly Cloudy,80,2013-05-29 07:35:00
3:55 AM,69.8,69.8,100,30.07,10.0,East,3.5,-,N/A,,Scattered Clouds,90,2013-05-29 07:55:00
4:15 AM,69.8,69.8,100,30.07,10.0,East,3.5,-,N/A,,Scattered Clouds,80,2013-05-29 08:15:00
4:35 AM,69.8,68.0,94,30.07,10.0,ENE,4.6,-,N/A,,Scattered Clouds,60,2013-05-29 08:35:00
4:55 AM,69.8,69.8,100,30.07,10.0,East,3.5,-,N/A,,Scattered Clouds,90,2013-05-29 08:55:00
5:15 AM,69.8,69.8,100,30.07,10.0,ESE,4.6,-,N/A,,Mostly Cloudy,120,2013-05-29 09:15:00
5:35 AM,69.8,69.8,100,30.07,10.0,Calm,Calm,-,N/A,,Overcast,0,2013-05-29 09:35:00
5:55 AM,69.8,69.8,100,30.07,7.0,Calm,Calm,-,0.02,Rain,Rain,0,2013-05-29 09:55:00
6:15 AM,69.8,69.8,100,30.07,7.0,Calm,Calm,-,N/A,,Scattered Clouds,0,2013-05-29 10:15:00
6:35 AM,69.8,69.8,100,30.08,10.0,Calm,Calm,-,N/A,Rain,Light Rain,0,2013-05-29 10:35:00
6:55 AM,69.8,69.8,100,30.09,7.0,South,4.6,-,N/A,,Drizzle,180,2013-05-29 10:55:00
7:15 AM,71.6,69.8,94,30.09,10.0,SSE,6.9,-,N/A,,Light Drizzle,150,2013-05-29 11:15:00
7:35 AM,71.6,69.8,94,30.09,10.0,SE,5.8,-,N/A,,Light Drizzle,140,2013-05-29 11:35:00
7:55 AM,71.6,69.8,94,30.10,10.0,SSE,13.8,-,N/A,,Mostly Cloudy,150,2013-05-29 11:55:00
8:15 AM,71.6,69.8,94,30.10,10.0,SSE,9.2,-,N/A,,Clear,150,2013-05-29 12:15:00
8:35 AM,71.6,69.8,94,30.11,10.0,SE,8.1,-,N/A,,Scattered Clouds,140,2013-05-29 12:35:00
8:55 AM,71.6,69.8,94,30.12,10.0,SE,5.8,-,N/A,,Scattered Clouds,130,2013-05-29 12:55:00
9:15 AM,71.6,69.8,94,30.12,10.0,SE,8.1,-,N/A,,Mostly Cloudy,130,2013-05-29 13:15:00
9:35 AM,73.4,69.8,88,30.12,10.0,SE,6.9,-,N/A,,Mostly Cloudy,130,2013-05-29 13:35:00
9:55 AM,73.4,69.8,88,30.12,10.0,SE,5.8,-,N/A,,Mostly Cloudy,140,2013-05-29 13:55:00
10:15 AM,75.2,69.8,83,30.12,10.0,ESE,6.9,-,N/A,,Mostly Cloudy,110,2013-05-29 14:15:00
10:35 AM,77.0,69.8,78,30.12,10.0,SE,9.2,-,N/A,,Clear,130,2013-05-29 14:35:00
10:55 AM,77.0,69.8,78,30.13,10.0,SSE,17.3,20.7,N/A,,Scattered Clouds,150,2013-05-29 14:55:00
11:15 AM,75.2,68.0,78,30.14,10.0,SE,13.8,24.2,N/A,,Mostly Cloudy,140,2013-05-29 15:15:00
11:35 AM,73.4,69.8,88,30.13,10.0,SE,8.1,-,N/A,Thunderstorm,Mostly Cloudy,130,2013-05-29 15:35:00
11:55 AM,77.0,69.8,78,30.14,10.0,SE,8.1,-,N/A,,Scattered Clouds,140,2013-05-29 15:55:00
12:15 PM,77.0,69.8,78,30.12,10.0,ESE,8.1,-,N/A,,Scattered Clouds,120,2013-05-29 16:15:00
12:35 PM,78.8,71.6,78,30.13,10.0,ESE,9.2,-,N/A,,Scattered Clouds,120,2013-05-29 16:35:00
12:55 PM,78.8,71.6,78,30.13,10.0,ESE,6.9,-,N/A,,Scattered Clouds,110,2013-05-29 16:55:00
1:15 PM,80.6,71.6,74,30.13,10.0,SE,9.2,-,N/A,,Scattered Clouds,130,2013-05-29 17:15:00
1:35 PM,80.6,69.8,70,30.12,10.0,ESE,10.4,16.1,N/A,,Mostly Cloudy,120,2013-05-29 17:35:00
1:55 PM,80.6,71.6,74,30.12,10.0,ESE,8.1,-,N/A,,Mostly Cloudy,120,2013-05-29 17:55:00
2:15 PM,80.6,69.8,70,30.12,10.0,SSE,13.8,20.7,N/A,,Mostly Cloudy,160,2013-05-29 18:15:00
2:35 PM,73.4,69.8,88,30.12,7.0,East,13.8,21.9,0.01,Rain,Light Rain,90,2013-05-29 18:35:00
2:55 PM,73.4,69.8,88,30.11,10.0,East,6.9,-,0.01,Rain,Light Rain,100,2013-05-29 18:55:00
3:15 PM,73.4,71.6,94,30.10,10.0,East,8.1,-,N/A,Rain,Light Rain,100,2013-05-29 19:15:00
3:35 PM,77.0,71.6,83,30.09,10.0,ESE,9.2,-,N/A,Rain,Light Rain,110,2013-05-29 19:35:00
3:55 PM,80.6,69.8,70,30.08,10.0,ESE,11.5,18.4,N/A,,Clear,120,2013-05-29 19:55:00
4:15 PM,80.6,71.6,74,30.07,10.0,ESE,10.4,17.3,N/A,,Scattered Clouds,120,2013-05-29 20:15:00
4:35 PM,80.6,71.6,74,30.08,10.0,ESE,9.2,-,N/A,,Mostly Cloudy,120,2013-05-29 20:35:00
4:55 PM,75.2,69.8,83,30.09,10.0,SE,9.2,16.1,N/A,,Overcast,140,2013-05-29 20:55:00
5:15 PM,78.8,68.0,69,30.09,10.0,ESE,4.6,-,N/A,,Scattered Clouds,110,2013-05-29 21:15:00
5:35 PM,80.6,71.6,74,30.08,10.0,ESE,6.9,-,N/A,,Scattered Clouds,110,2013-05-29 21:35:00
5:55 PM,78.8,69.8,74,30.07,10.0,East,10.4,19.6,N/A,,Mostly Cloudy,100,2013-05-29 21:55:00
6:15 PM,75.2,69.8,83,30.07,10.0,East,9.2,16.1,N/A,Rain,Light Rain,90,2013-05-29 22:15:00
6:35 PM,77.0,69.8,78,30.07,10.0,East,5.8,-,N/A,,Scattered Clouds,100,2013-05-29 22:35:00
6:55 PM,77.0,69.8,78,30.07,10.0,ESE,4.6,-,N/A,,Clear,110,2013-05-29 22:55:00
7:15 PM,78.8,71.6,78,30.08,10.0,SE,10.4,17.3,N/A,,Clear,140,2013-05-29 23:15:00
7:35 PM,71.6,68.0,88,30.08,10.0,SSE,3.5,-,N/A,Rain,Light Rain,150,2013-05-29 23:35:00
7:55 PM,71.6,69.8,94,30.07,10.0,Calm,Calm,-,N/A,,Scattered Clouds,0,2013-05-29 23:55:00
8:15 PM,71.6,69.8,94,30.07,10.0,Calm,Calm,-,N/A,,Mostly Cloudy,0,2013-05-30 00:15:00
8:35 PM,71.6,69.8,94,30.08,10.0,Calm,Calm,-,N/A,,Overcast,0,2013-05-30 00:35:00
8:55 PM,71.6,69.8,94,30.09,10.0,Calm,Calm,-,N/A,,Mostly Cloudy,0,2013-05-30 00:55:00
9:15 PM,71.6,69.8,94,30.09,10.0,East,3.5,-,N/A,,Scattered Clouds,90,2013-05-30 01:15:00
9:35 PM,71.6,69.8,94,30.09,10.0,Calm,Calm,-,N/A,,Scattered Clouds,0,2013-05-30 01:35:00
9:55 PM,73.4,71.6,94,30.09,10.0,ESE,3.5,-,N/A,Rain,Light Rain,120,2013-05-30 01:55:00
10:15 PM,73.4,71.6,94,30.09,10.0,ESE,4.6,-,N/A,,Scattered Clouds,110,2013-05-30 02:15:00
10:35 PM,73.4,71.6,94,30.09,10.0,Calm,Calm,-,N/A,,Clear,0,2013-05-30 02:35:00
10:55 PM,73.4,71.6,94,30.10,7.0,East,3.5,-,N/A,,Mostly Cloudy,90,2013-05-30 02:55:00
11:15 PM,73.4,71.6,94,30.10,10.0,East,4.6,-,N/A,,Mostly Cloudy,100,2013-05-30 03:15:00
11:35 PM,71.6,71.6,100,30.10,7.0,East,3.5,-,N/A,,Clear,100,2013-05-30 03:35:00
11:55 PM,71.6,69.8,94,30.10,10.0,East,4.6,-,N/A,,Clear,90,2013-05-30 03:55:00